Seward, AK

7:12 PM AKDT on August 22, 2017 (GMT -0800)
Seward

Weather History for PAWD - January, 2014

Change the Weather History Date:

Monday, January 27, 2014

  Actual Average Record
Temperature  
Mean Temperature 47 °F -  
Max Temperature 57 °F 32 °F 57 °F (2014)
Min Temperature 37 °F 21 °F -4 °F (1989)
Degree Days  
Heating Degree Days 18    
Moisture  
Dew Point 39 °F    
Average Humidity 87    
Maximum Humidity 100    
Minimum Humidity 33    
Precipitation  
Precipitation 0.30 in - - ()
Sea Level Pressure  
Sea Level Pressure 29.79 in    
Wind  
Wind Speed 6 mph (South)    
Max Wind Speed 26 mph    
Max Gust Speed 39 mph    
Visibility 9 miles    
Events Rain    
Averages and records for this station are not official NWS values.
T = Trace of Precipitation, MM = Missing Value Source: NWS Daily Summary

Daily Weather History Graph

Daily Weather History Graph

Search for Another Location

Airport or City:

Trip Planner

Search our weather history database for the weather conditions in past years. The results will help you decide how hot, cold, wet, or windy it might be!

Date:

Astronomy

Jan. 27, 2014 Rise Set
Actual Time 9:22 AM AKST 4:58 PM AKST
Civil Twilight 8:33 AM AKST 5:47 PM AKST
Nautical Twilight 7:42 AM AKST 6:39 PM AKST
Astronomical Twilight 6:53 AM AKST 7:28 PM AKST
Moon 6:28 AM AKST (1/27) 1:40 PM AKST (1/27)
Length of Visible Light 9h 14m
Length of Day
7h 36m
Waning Crescent, 13% of the Moon is Illuminated
Jan 27
Waning Crescent
Jan 30
New
Feb 6
First Quarter
Feb 14
Full
Feb 22
Last Quarter

Hourly Weather History & Observations

Time (AKST) Temp. Windchill Dew Point Humidity Pressure Visibility Wind Dir Wind Speed Gust Speed Precip Events Conditions
12:53 AM 39.0 °F 34.8 °F 37.9 °F 96% 29.80 in 10.0 mi North 5.8 mph - N/A   Mostly Cloudy
1:53 AM 41.0 °F 37.1 °F 37.9 °F 89% 29.79 in 10.0 mi Variable 5.8 mph - N/A   Clear
3:53 AM 39.0 °F 36.8 °F 37.0 °F 93% 29.73 in 10.0 mi Variable 3.5 mph - N/A   Clear
4:53 AM 37.9 °F - 36.0 °F 93% 29.71 in 10.0 mi Calm Calm - N/A   Mostly Cloudy
5:53 AM 41.0 °F 37.1 °F 37.9 °F 89% 29.70 in 10.0 mi East 5.8 mph - N/A   Partly Cloudy
6:53 AM 39.0 °F 34.8 °F 36.0 °F 89% 29.68 in 10.0 mi Variable 5.8 mph - N/A   Partly Cloudy
7:53 AM 41.0 °F 37.1 °F 36.0 °F 82% 29.66 in 10.0 mi Variable 5.8 mph - N/A   Clear
8:53 AM 42.1 °F 39.2 °F 34.0 °F 73% 29.66 in 10.0 mi Variable 4.6 mph - N/A   Clear
9:53 AM 53.1 °F - 30.0 °F 41% 29.68 in 10.0 mi South 13.8 mph 21.9 mph N/A   Overcast
10:53 AM 57.9 °F - 28.9 °F 33% 29.65 in 10.0 mi ESE 12.7 mph 18.4 mph N/A   Clear
11:42 AM 48.2 °F - 42.8 °F 82% 29.68 in 6.0 mi SSW 24.2 mph 32.2 mph 0.02 in Rain Light Rain
11:53 AM 46.9 °F - 42.1 °F 83% 29.69 in 5.0 mi SSW 26.5 mph 39.1 mph 0.03 in Rain Light Rain
12:53 PM 46.0 °F 41.4 °F 42.1 °F 86% 29.75 in 5.0 mi South 9.2 mph 25.3 mph 0.10 in Rain Light Rain
1:53 PM 46.9 °F - 39.9 °F 77% 29.78 in 10.0 mi SSW 13.8 mph 21.9 mph 0.04 in   Overcast
2:53 PM 46.0 °F 40.2 °F 39.9 °F 79% 29.79 in 10.0 mi SSW 12.7 mph - N/A   Overcast
3:53 PM 44.1 °F 42.5 °F 41.0 °F 89% 29.81 in 9.0 mi NNE 3.5 mph - 0.01 in Rain Light Rain
4:51 PM 42.8 °F 41.1 °F 42.8 °F 100% 29.83 in 8.0 mi NW 3.5 mph - 0.02 in Rain Light Rain
4:53 PM 43.0 °F 41.3 °F 42.1 °F 97% 29.83 in 9.0 mi NW 3.5 mph - 0.02 in Rain Light Rain
5:26 PM 42.8 °F - 41.0 °F 93% 29.84 in 8.0 mi Calm Calm - 0.01 in Rain Light Rain
5:53 PM 42.1 °F - 41.0 °F 96% 29.84 in 8.0 mi Calm Calm - 0.02 in Rain Light Rain
6:35 PM 42.8 °F 41.1 °F 41.0 °F 93% 29.85 in 6.0 mi ESE 3.5 mph - 0.02 in Rain Light Rain
6:41 PM 42.8 °F - 41.0 °F 93% 29.85 in 7.0 mi Calm Calm - 0.02 in Rain Light Rain
6:53 PM 42.1 °F 39.2 °F 41.0 °F 96% 29.85 in 8.0 mi ESE 4.6 mph - 0.03 in Rain Light Rain
7:53 PM 42.1 °F 40.2 °F 41.0 °F 96% 29.85 in 8.0 mi Variable 3.5 mph - 0.01 in Rain Light Rain
8:53 PM 43.0 °F 37.2 °F 39.9 °F 89% 29.86 in 7.0 mi South 10.4 mph - 0.02 in Rain Light Rain
9:53 PM 42.1 °F 37.7 °F 41.0 °F 96% 29.88 in 7.0 mi SSE 6.9 mph - 0.00 in   Overcast
10:24 PM 42.8 °F - 41.0 °F 93% 29.88 in 10.0 mi Calm Calm - N/A   Overcast
10:35 PM 42.8 °F - 41.0 °F 93% 29.88 in 10.0 mi Calm Calm - 0.00 in Rain Light Rain
10:53 PM 42.1 °F - 41.0 °F 96% 29.88 in 10.0 mi Calm Calm - 0.00 in Rain Light Rain
11:37 PM 41.0 °F - 39.2 °F 93% 29.89 in 8.0 mi Calm Calm - 0.01 in Rain Light Rain
11:53 PM 41.0 °F - 39.9 °F 96% 29.90 in 8.0 mi Calm Calm - 0.02 in Rain Light Rain